Time,TemperatureF,DewpointF,PressureIn,WindDirection,WindDirectionDegrees,WindSpeedMPH,WindSpeedGustMPH,Humidity,HourlyPrecipIn,Conditions,Clouds,dailyrainin,SolarRadiationWatts/m^2,SoftwareType,DateUTC
2013-01-08 00:02:00,20.0,17.0,-100.00,NNE,16,2.0,4.0,89,-99.99,,,0.00,0.120000,,2013-01-08 08:02:00,
2013-01-08 00:11:00,20.0,17.0,-100.00,NNE,16,2.0,4.0,89,-99.99,,,0.00,0.120000,,2013-01-08 08:11:00,
2013-01-08 00:42:00,21.0,19.0,-100.00,NNW,341,2.0,4.0,89,-99.99,,,0.00,0.120000,,2013-01-08 08:42:00,
2013-01-08 00:53:00,21.0,19.0,-100.00,NNW,341,2.0,4.0,89,-99.99,,,0.00,0.120000,,2013-01-08 08:53:00,
2013-01-08 01:02:00,21.0,19.0,-100.00,NNW,341,2.0,4.0,89,-99.99,,,0.00,0.120000,,2013-01-08 09:02:00,
2013-01-08 01:12:00,21.0,19.0,-100.00,NNW,341,2.0,4.0,89,-99.99,,,0.00,0.120000,,2013-01-08 09:12:00,
2013-01-08 01:32:00,17.0,15.0,-100.00,SW,221,1.0,3.0,91,-99.99,,,0.00,0.000000,,2013-01-08 09:32:00,
2013-01-08 01:42:00,17.0,15.0,-100.00,SW,221,1.0,3.0,91,-99.99,,,0.00,0.000000,,2013-01-08 09:42:00,
2013-01-08 01:52:00,17.0,15.0,-100.00,SW,221,1.0,3.0,91,-99.99,,,0.00,0.000000,,2013-01-08 09:52:00,
2013-01-08 02:02:00,17.0,15.0,-100.00,SW,221,1.0,3.0,91,-99.99,,,0.00,0.000000,,2013-01-08 10:02:00,
2013-01-08 02:12:00,17.0,15.0,-100.00,SW,221,1.0,3.0,91,-99.99,,,0.00,0.000000,,2013-01-08 10:12:00,
2013-01-08 02:42:00,17.0,15.0,-100.00,NNE,25,1.0,2.0,93,-99.99,,,0.00,0.120000,,2013-01-08 10:42:00,
2013-01-08 02:52:00,17.0,15.0,-100.00,NNE,25,1.0,2.0,93,-99.99,,,0.00,0.120000,,2013-01-08 10:52:00,
2013-01-08 03:02:00,17.0,15.0,-100.00,NNE,25,1.0,2.0,93,-99.99,,,0.00,0.120000,,2013-01-08 11:02:00,
2013-01-08 03:12:00,17.0,15.0,-100.00,NNE,25,1.0,2.0,93,-99.99,,,0.00,0.120000,,2013-01-08 11:12:00,
2013-01-08 03:42:00,17.0,15.0,-100.00,West,281,1.0,2.0,93,-99.99,,,0.00,0.000000,,2013-01-08 11:42:00,
2013-01-08 03:53:00,17.0,15.0,-100.00,West,281,1.0,2.0,93,-99.99,,,0.00,0.000000,,2013-01-08 11:53:00,
2013-01-08 04:02:00,17.0,15.0,-100.00,West,281,1.0,2.0,93,-99.99,,,0.00,0.000000,,2013-01-08 12:02:00,
2013-01-08 04:12:00,17.0,15.0,-100.00,West,281,1.0,2.0,93,-99.99,,,0.00,0.000000,,2013-01-08 12:12:00,
2013-01-08 04:32:00,15.0,13.0,-100.00,SW,219,2.0,5.0,90,-99.99,,,0.00,0.000000,,2013-01-08 12:32:00,
2013-01-08 04:42:00,15.0,13.0,-100.00,SW,219,2.0,5.0,90,-99.99,,,0.00,0.000000,,2013-01-08 12:42:00,
2013-01-08 04:53:00,15.0,13.0,-100.00,SW,219,2.0,5.0,90,-99.99,,,0.00,0.000000,,2013-01-08 12:53:00,
2013-01-08 05:03:00,15.0,13.0,-100.00,SW,219,2.0,5.0,90,-99.99,,,0.00,0.000000,,2013-01-08 13:03:00,
2013-01-08 05:12:00,15.0,13.0,-100.00,SW,219,2.0,5.0,90,-99.99,,,0.00,0.000000,,2013-01-08 13:12:00,
2013-01-08 05:42:00,17.0,15.0,-100.00,North,358,2.0,4.0,92,-99.99,,,0.00,0.000000,,2013-01-08 13:42:00,
2013-01-08 05:53:00,17.0,15.0,-100.00,North,358,2.0,4.0,92,-99.99,,,0.00,0.000000,,2013-01-08 13:53:00,
2013-01-08 06:02:00,17.0,15.0,-100.00,North,358,2.0,4.0,92,-99.99,,,0.00,0.000000,,2013-01-08 14:02:00,
2013-01-08 06:12:00,17.0,15.0,-100.00,North,358,2.0,4.0,92,-99.99,,,0.00,0.000000,,2013-01-08 14:12:00,
2013-01-08 06:42:00,16.0,14.0,-100.00,ESE,114,0.0,1.0,91,-99.99,,,0.00,0.000000,,2013-01-08 14:42:00,
2013-01-08 06:53:00,16.0,14.0,-100.00,ESE,114,0.0,1.0,91,-99.99,,,0.00,0.000000,,2013-01-08 14:53:00,
2013-01-08 07:02:00,16.0,14.0,-100.00,ESE,114,0.0,1.0,91,-99.99,,,0.00,0.000000,,2013-01-08 15:02:00,
2013-01-08 07:12:00,16.0,14.0,-100.00,ESE,114,0.0,1.0,91,-99.99,,,0.00,0.000000,,2013-01-08 15:12:00,
2013-01-08 07:33:00,17.0,15.0,-100.00,WSW,257,0.0,1.0,92,-99.99,,,0.00,2.440000,,2013-01-08 15:33:00,
2013-01-08 07:42:00,17.0,15.0,-100.00,WSW,257,0.0,1.0,92,-99.99,,,0.00,2.440000,,2013-01-08 15:42:00,
2013-01-08 07:53:00,17.0,15.0,-100.00,WSW,257,0.0,1.0,92,-99.99,,,0.00,2.440000,,2013-01-08 15:53:00,
2013-01-08 08:02:00,17.0,15.0,-100.00,WSW,257,0.0,1.0,92,-99.99,,,0.00,2.440000,,2013-01-08 16:02:00,
2013-01-08 08:12:00,17.0,15.0,-100.00,WSW,257,0.0,1.0,92,-99.99,,,0.00,2.440000,,2013-01-08 16:12:00,
2013-01-08 08:42:00,18.0,16.0,-100.00,SW,231,2.0,3.0,91,-99.99,,,0.00,75.779999,,2013-01-08 16:42:00,
2013-01-08 08:53:00,18.0,16.0,-100.00,SW,231,2.0,3.0,91,-99.99,,,0.00,75.779999,,2013-01-08 16:53:00,
2013-01-08 09:02:00,18.0,16.0,-100.00,SW,231,2.0,3.0,91,-99.99,,,0.00,75.779999,,2013-01-08 17:02:00,
2013-01-08 09:12:00,18.0,16.0,-100.00,SW,231,2.0,3.0,91,-99.99,,,0.00,75.779999,,2013-01-08 17:12:00,
2013-01-08 09:43:00,25.0,21.0,-100.00,SE,145,3.0,5.0,83,-99.99,,,0.00,275.559998,,2013-01-08 17:43:00,
2013-01-08 09:53:00,25.0,21.0,-100.00,SE,145,3.0,5.0,83,-99.99,,,0.00,275.559998,,2013-01-08 17:53:00,
2013-01-08 10:03:00,25.0,21.0,-100.00,SE,145,3.0,5.0,83,-99.99,,,0.00,275.559998,,2013-01-08 18:03:00,
2013-01-08 10:12:00,25.0,21.0,-100.00,SE,145,3.0,5.0,83,-99.99,,,0.00,275.559998,,2013-01-08 18:12:00,
2013-01-08 10:43:00,31.0,24.0,-100.00,WNW,290,2.0,4.0,75,-99.99,,,0.00,375.859985,,2013-01-08 18:43:00,
2013-01-08 10:53:00,31.0,24.0,-100.00,WNW,290,2.0,4.0,75,-99.99,,,0.00,375.859985,,2013-01-08 18:53:00,
2013-01-08 11:02:00,31.0,24.0,-100.00,WNW,290,2.0,4.0,75,-99.99,,,0.00,375.859985,,2013-01-08 19:02:00,
2013-01-08 11:12:00,31.0,24.0,-100.00,WNW,290,2.0,4.0,75,-99.99,,,0.00,375.859985,,2013-01-08 19:12:00,
2013-01-08 11:42:00,37.0,24.0,-100.00,NE,50,2.0,5.0,59,-99.99,,,0.00,475.339996,,2013-01-08 19:42:00,
2013-01-08 11:53:00,37.0,24.0,-100.00,NE,50,2.0,5.0,59,-99.99,,,0.00,475.339996,,2013-01-08 19:53:00,
2013-01-08 12:02:00,37.0,24.0,-100.00,NE,50,2.0,5.0,59,-99.99,,,0.00,475.339996,,2013-01-08 20:02:00,
2013-01-08 12:12:00,37.0,24.0,-100.00,NE,50,2.0,5.0,59,-99.99,,,0.00,475.339996,,2013-01-08 20:12:00,
2013-01-08 12:43:00,40.0,25.0,-100.00,East,80,4.0,6.0,54,-99.99,,,0.00,497.540009,,2013-01-08 20:43:00,
2013-01-08 12:53:00,40.0,25.0,-100.00,East,80,4.0,6.0,54,-99.99,,,0.00,497.540009,,2013-01-08 20:53:00,
2013-01-08 13:02:00,40.0,25.0,-100.00,East,80,4.0,6.0,54,-99.99,,,0.00,497.540009,,2013-01-08 21:02:00,
2013-01-08 13:12:00,40.0,25.0,-100.00,East,80,4.0,6.0,54,-99.99,,,0.00,497.540009,,2013-01-08 21:12:00,
2013-01-08 13:43:00,43.0,26.0,-100.00,NE,42,3.0,7.0,50,-99.99,,,0.00,460.579987,,2013-01-08 21:43:00,
2013-01-08 13:53:00,43.0,26.0,-100.00,NE,42,3.0,7.0,50,-99.99,,,0.00,460.579987,,2013-01-08 21:53:00,
2013-01-08 14:02:00,43.0,26.0,-100.00,NE,42,3.0,7.0,50,-99.99,,,0.00,460.579987,,2013-01-08 22:02:00,
2013-01-08 14:12:00,43.0,26.0,-100.00,NE,42,3.0,7.0,50,-99.99,,,0.00,460.579987,,2013-01-08 22:12:00,
2013-01-08 14:42:00,44.0,26.0,-100.00,NNE,15,5.0,8.0,48,-99.99,,,0.00,375.390015,,2013-01-08 22:42:00,
2013-01-08 14:53:00,44.0,26.0,-100.00,NNE,15,5.0,8.0,48,-99.99,,,0.00,375.390015,,2013-01-08 22:53:00,
2013-01-08 15:02:00,44.0,26.0,-100.00,NNE,15,5.0,8.0,48,-99.99,,,0.00,375.390015,,2013-01-08 23:02:00,
2013-01-08 15:12:00,44.0,26.0,-100.00,NNE,15,5.0,8.0,48,-99.99,,,0.00,375.390015,,2013-01-08 23:12:00,
2013-01-08 15:43:00,44.0,26.0,-100.00,ENE,64,3.0,6.0,48,-99.99,,,0.00,247.429993,,2013-01-08 23:43:00,
2013-01-08 15:53:00,44.0,26.0,-100.00,ENE,64,3.0,6.0,48,-99.99,,,0.00,247.429993,,2013-01-08 23:53:00,
2013-01-08 16:02:00,44.0,26.0,-100.00,ENE,64,3.0,6.0,48,-99.99,,,0.00,247.429993,,2013-01-09 00:02:00,
2013-01-08 16:12:00,44.0,26.0,-100.00,ENE,64,3.0,6.0,48,-99.99,,,0.00,247.429993,,2013-01-09 00:12:00,
2013-01-08 16:42:00,44.0,26.0,-100.00,East,82,1.0,2.0,50,-99.99,,,0.00,91.000000,,2013-01-09 00:42:00,
2013-01-08 16:53:00,44.0,26.0,-100.00,East,82,1.0,2.0,50,-99.99,,,0.00,91.000000,,2013-01-09 00:53:00,
2013-01-08 17:02:00,44.0,26.0,-100.00,East,82,1.0,2.0,50,-99.99,,,0.00,91.000000,,2013-01-09 01:02:00,
2013-01-08 17:12:00,44.0,26.0,-100.00,East,82,1.0,2.0,50,-99.99,,,0.00,91.000000,,2013-01-09 01:12:00,
2013-01-08 17:42:00,37.0,25.0,-100.00,NE,51,2.0,2.0,61,-99.99,,,0.00,0.350000,,2013-01-09 01:42:00,
2013-01-08 17:52:00,37.0,25.0,-100.00,NE,51,2.0,2.0,61,-99.99,,,0.00,0.350000,,2013-01-09 01:52:00,
2013-01-08 18:02:00,37.0,25.0,-100.00,NE,51,2.0,2.0,61,-99.99,,,0.00,0.350000,,2013-01-09 02:02:00,
2013-01-08 18:12:00,37.0,25.0,-100.00,NE,51,2.0,2.0,61,-99.99,,,0.00,0.350000,,2013-01-09 02:12:00,
2013-01-08 18:42:00,31.0,24.0,-100.00,ENE,65,1.0,2.0,72,-99.99,,,0.00,0.000000,,2013-01-09 02:42:00,
2013-01-08 18:53:00,31.0,24.0,-100.00,ENE,65,1.0,2.0,72,-99.99,,,0.00,0.000000,,2013-01-09 02:53:00,
2013-01-08 19:02:00,31.0,24.0,-100.00,ENE,65,1.0,2.0,72,-99.99,,,0.00,0.000000,,2013-01-09 03:02:00,
2013-01-08 19:12:00,31.0,24.0,-100.00,ENE,65,1.0,2.0,72,-99.99,,,0.00,0.000000,,2013-01-09 03:12:00,
2013-01-08 19:42:00,30.0,25.0,-100.00,North,360,2.0,2.0,80,-99.99,,,0.00,0.000000,,2013-01-09 03:42:00,
2013-01-08 19:52:00,30.0,25.0,-100.00,North,360,2.0,2.0,80,-99.99,,,0.00,0.000000,,2013-01-09 03:52:00,
2013-01-08 20:02:00,30.0,25.0,-100.00,North,360,2.0,2.0,80,-99.99,,,0.00,0.000000,,2013-01-09 04:02:00,
2013-01-08 20:12:00,30.0,25.0,-100.00,North,360,2.0,2.0,80,-99.99,,,0.00,0.000000,,2013-01-09 04:12:00,
2013-01-08 20:32:00,25.0,21.0,-100.00,WNW,301,2.0,3.0,85,-99.99,,,0.00,0.000000,,2013-01-09 04:32:00,
2013-01-08 20:42:00,25.0,21.0,-100.00,WNW,301,2.0,3.0,85,-99.99,,,0.00,0.000000,,2013-01-09 04:42:00,
2013-01-08 20:52:00,25.0,21.0,-100.00,WNW,301,2.0,3.0,85,-99.99,,,0.00,0.000000,,2013-01-09 04:52:00,
2013-01-08 21:03:00,25.0,21.0,-100.00,WNW,301,2.0,3.0,85,-99.99,,,0.00,0.000000,,2013-01-09 05:03:00,
2013-01-08 21:12:00,25.0,21.0,-100.00,WNW,301,2.0,3.0,85,-99.99,,,0.00,0.000000,,2013-01-09 05:12:00,
2013-01-08 21:42:00,24.0,22.0,-100.00,SW,228,2.0,2.0,89,-99.99,,,0.00,0.000000,,2013-01-09 05:42:00,
2013-01-08 21:52:00,24.0,22.0,-100.00,SW,228,2.0,2.0,89,-99.99,,,0.00,0.000000,,2013-01-09 05:52:00,
2013-01-08 22:02:00,24.0,22.0,-100.00,SW,228,2.0,2.0,89,-99.99,,,0.00,0.000000,,2013-01-09 06:02:00,
2013-01-08 22:11:00,24.0,22.0,-100.00,SW,228,2.0,2.0,89,-99.99,,,0.00,0.000000,,2013-01-09 06:11:00,
2013-01-08 22:42:00,24.0,21.0,-100.00,NW,311,3.0,4.0,90,-99.99,,,0.00,0.000000,,2013-01-09 06:42:00,
2013-01-08 22:52:00,24.0,21.0,-100.00,NW,311,3.0,4.0,90,-99.99,,,0.00,0.000000,,2013-01-09 06:52:00,
2013-01-08 23:02:00,24.0,21.0,-100.00,NW,311,3.0,4.0,90,-99.99,,,0.00,0.000000,,2013-01-09 07:02:00,
2013-01-08 23:11:00,24.0,21.0,-100.00,NW,311,3.0,4.0,90,-99.99,,,0.00,0.000000,,2013-01-09 07:11:00,
2013-01-08 23:32:00,21.0,19.0,-100.00,ESE,122,1.0,2.0,92,-99.99,,,0.00,0.000000,,2013-01-09 07:32:00,
2013-01-08 23:42:00,21.0,19.0,-100.00,ESE,122,1.0,2.0,92,-99.99,,,0.00,0.000000,,2013-01-09 07:42:00,
2013-01-08 23:52:00,21.0,19.0,-100.00,ESE,122,1.0,2.0,92,-99.99,,,0.00,0.000000,,2013-01-09 07:52:00,